Location: Ägeri
(47.1364°N, 8.5853°E)
Time: 14:00:04
(UTC+00:00)

Daily predictions for brighter satellites

Satellite Brightness Start Highest point End
(mag) Time Altitude Azimuth Time Altitude Azimuth Time Altitude Azimuth
Cosmos 1697 Rocket 2.9 19:56:30 10° NNW 20:02:05 61° ENE 20:07:38 10° SE
Cosmos 1980 Rocket 3.2 19:57:18 10° NNW 20:02:32 35° NE 20:07:43 10° ESE
H-2A R/B 4.3 20:00:54 10° SSW 20:04:08 26° W 20:07:25 10° NW
SL-16 R/B 4.4 20:01:08 10° N 20:04:17 15° NE 20:07:26 10° ENE
Cosmos 2369 4.4 20:05:26 10° NNW 20:10:57 44° NE 20:16:24 10° SE
Cosmos 2344 4.4 20:07:26 10° NW 20:16:07 69° NE 20:28:11 10° SE
Resurs 01 Rocket 2.4 20:12:32 10° S 20:16:53 53° W 20:21:16 10° NNW
COSMOS 2406 3.6 20:14:52 10° S 20:20:17 44° ESE 20:25:43 10° NE
Cosmos 2184 Rocket 4.0 20:17:52 10° N 20:24:06 83° E 20:30:20 10° S
Cosmos 1833 Rocket 2.7 20:20:15 10° SSW 20:25:51 80° ESE 20:31:30 10° NNE
H-2A R/B 3.1 20:21:45 10° N 20:26:05 52° WNW 20:30:27 10° SW
Cosmos 1867 4.0 20:24:15 10° NNW 20:29:38 54° NE 20:34:38 12° SE
Cosmos 1536 Rocket 3.9 20:27:18 10° SSW 20:31:37 69° W 20:35:59 10° N
Cosmos 1703 3.3 20:28:54 10° S 20:32:45 83° W 20:36:38 10° N
CARTOSAT-1 3.8 20:29:49 10° S 20:34:06 71° WSW 20:38:26 10° NNW
Cosmos 1825 4.4 20:34:10 10° E 20:34:46 10° E 20:35:22 10° ENE
USA 245 3.0 20:32:04 10° SSE 20:35:59 84° WSW 20:39:09 10° NNW
Cosmos 1606 Rocket 3.7 20:31:48 10° N 20:36:05 58° ENE 20:39:50 13° SSE
Ariane Rocket 3.7 20:33:13 10° S 20:38:11 52° W 20:43:11 10° NNW
Cosmos 2322 Rocket 4.2 20:34:53 10° N 20:38:42 18° NE 20:42:32 10° E
CZ-4B R/B 3.0 20:43:09 10° N 20:45:44 30° WNW 20:48:19 10° SW
ARIANE 5 R/B 3.3 20:44:14 15° SE 20:47:34 42° ENE 20:51:44 10° N
Terra 2.0 20:44:04 15° SSE 20:47:58 59° ENE 20:52:39 10° N
SPOT 3 Rocket 3.9 20:44:37 10° S 20:49:46 64° WSW 20:54:58 10° NNW
SPOT 5 2.6 20:46:56 14° SSE 20:50:44 89° ENE 20:55:04 10° NNW
Cosmos 2278 4.3 20:47:22 10° NNW 20:52:55 49° NE 20:57:25 15° SE
RESURS DK-1 4.1 20:49:30 10° NW 20:52:58 26° WSW 20:56:23 10° SSW
USA 276 2.7 20:50:56 10° WNW 20:53:55 53° N 20:56:53 10° E
Cosmos 2341 Rocket 4.4 20:48:21 10° N 20:54:31 51° ENE 20:59:17 17° SSE
FALCON 9 DEB 3.5 20:52:07 10° WNW 20:55:21 55° NNE 20:58:00 14° E
Cosmos 1726 Rocket 3.5 20:53:40 10° N 20:58:01 76° E 21:01:15 17° SSE
Meteor 1-11 4.4 20:58:41 14° SSE 21:03:20 54° E 21:08:45 10° NNE
Cosmos 2082 Rocket 2.2 20:58:22 10° SSW 21:04:01 69° ESE 21:09:42 10° NNE
Helios 1A Rocket 3.2 21:04:55 16° S 21:08:06 65° WSW 21:12:12 10° NNW
Spot 2 Rocket 3.8 21:04:02 13° S 21:08:29 65° WSW 21:13:35 10° NNW
ASTEX 1 4.1 21:04:04 10° NNE 21:08:46 39° E 21:11:40 20° SSE
Cosmos 1328 3.9 21:05:03 10° SSW 21:09:02 76° W 21:13:02 10° N
Cosmos 2084 Rocket 4.1 21:07:48 10° NW 21:11:29 39° WSW 21:13:53 19° S
Cosmos 2360 Rocket 4.1 21:09:13 10° N 21:13:24 21° NE 21:17:34 10° E
Nadezhda 1 Rocket 4.2 21:08:21 10° SSW 21:14:23 69° W 21:20:28 10° N
Cosmos 1932 4.4 21:11:42 10° SSW 21:17:48 63° ESE 21:24:02 10° NE
Cosmos 2181 Rocket 4.3 21:17:08 19° SSE 21:21:22 51° E 21:27:23 10° NNE
X-37B 2.6 21:24:23 10° WSW 21:25:27 13° SW 21:25:27 13° SW
ERS-1 Rocket 3.6 21:22:06 15° S 21:26:08 51° W 21:31:04 10° NNW
Cosmos 1892 2.6 21:26:27 25° S 21:28:31 76° E 21:32:18 10° NNE
Cosmos 1302 Rocket 4.4 21:29:53 10° SSW 21:35:02 63° WNW 21:40:12 10° NNE
Cosmos 1892 Rocket 4.2 21:38:01 13° SSW 21:41:50 53° WNW 21:46:07 10° N
Cosmos 968 Rocket 4.3 21:38:16 10° NNW 21:43:12 45° WSW 21:46:30 20° SSW
Cosmos 1503 Rocket 4.4 21:39:25 10° NNW 21:44:38 55° ENE 21:47:32 25° SE
Cosmos 1697 Rocket 4.4 21:41:18 10° NW 21:45:35 23° WSW 21:49:50 10° SSW
ALOS 2 4.3 21:44:13 15° ESE 21:46:27 22° ENE 21:49:51 10° NNE
Cosmos 1980 Rocket 3.0 21:41:16 10° NW 21:46:38 43° WSW 21:50:07 20° SSW
Cosmos 2219 Rocket 4.4 21:45:14 10° N 21:49:06 18° NE 21:52:58 10° E
SL-16 R/B 2.5 21:44:00 10° NNW 21:49:38 61° ENE 21:52:57 25° SE
Cosmos 2058 Rocket 3.6 21:46:29 10° NNW 21:50:49 52° W 21:53:20 23° SSW
Cosmos 1408 3.4 21:48:45 19° SW 21:50:53 43° WNW 21:54:12 10° N
Cosmos 1626 Rocket 3.5 21:50:06 32° S 21:52:00 68° E 21:56:21 10° NNE
SL-8 Rocket 4.1 21:47:49 10° NNW 21:54:02 73° W 21:58:01 23° S
ATLAS 5 CENTAUR R/B 1.2 21:50:51 12° SW 21:54:15 83° NW 21:58:28 10° NE
USA 267 3.5 21:48:08 10° ENE 21:54:21 44° SE 21:59:31 15° SSW
SJ 16-02 2.0 21:57:25 10° N 22:01:43 46° ENE 22:03:35 29° ESE
In-Cosmos 22 Rocket 4.3 21:59:05 20° SSW 22:03:00 75° WNW 22:08:26 10° N
SL-4 R/B 2.9 22:04:44 26° E 22:04:44 26° E 22:06:39 10° ENE
Cosmos 1825 2.4 22:08:00 32° SSW 22:09:32 63° W 22:13:16 10° N
Cosmos 2366 rocket 4.3 22:08:09 10° NNW 22:14:24 63° W 22:18:15 24° SSW
Cosmos 1869 3.8 22:13:18 10° NNW 22:17:06 50° W 22:18:25 34° SSW
Cosmos 2218 Rocket 4.5 22:14:35 10° NNW 22:20:51 56° W 22:24:43 23° SSW
Cosmos 2322 Rocket 2.2 22:18:00 10° NNW 22:23:43 79° ENE 22:26:28 32° SE
GP-B 4.3 22:19:49 10° NNW 22:23:55 37° W 22:26:27 20° SW
ARIANE 5 R/B 4.5 22:21:46 15° SW 22:24:11 22° W 22:27:39 10° NW
Terra 3.9 22:22:57 10° SW 22:26:06 18° W 22:29:21 10° NW
USA 234 3.6 22:22:40 10° ESE 22:29:08 65° NNE 22:35:38 10° NW
USA 276 3.2 22:26:43 10° WNW 22:28:42 32° W 22:28:42 32° W
Cosmos 1934 Rocket 4.5 22:25:50 10° N 22:31:44 48° ENE 22:34:46 27° SE
Meteor 2-20 Rocket 4.5 22:33:21 33° SSE 22:36:09 67° E 22:42:12 10° NNE
BREEZE-M DEB (TANK) 3.9 22:33:49 10° WNW 22:37:10 84° NNE 22:50:37 10° ESE
Cosmos 1633 3.0 22:39:00 41° WSW 22:39:45 51° WNW 22:43:10 10° N
Cosmos 1758 Rocket 3.7 22:42:25 39° SSW 22:43:56 69° WNW 22:48:21 10° N
Cosmos 1238 4.1 22:44:13 79° SSE 22:44:21 83° E 22:47:57 10° N
Cosmos 2333 Rocket 2.9 22:39:01 10° NNW 22:44:38 49° NE 22:48:05 22° ESE
Cosmos 2082 Rocket 4.3 22:43:59 10° W 22:48:38 25° NW 22:53:18 10° N
COSMOS 2487 4.4 22:52:54 16° ENE 22:52:54 16° ENE 22:54:09 10° NE
Cosmos 1606 2.8 22:49:53 10° NNW 22:53:43 64° W 22:54:21 54° SW
Cosmos-2242 3.5 22:49:58 10° NNW 22:54:04 49° W 22:55:10 38° SW
Cosmos 1812 Rocket 4.5 22:50:37 10° NNW 22:54:47 40° W 22:56:09 31° SW
ADEOS Rocket 3.5 22:53:13 31° SSE 22:57:15 86° WSW 23:05:05 10° NNW
Cosmos 2360 Rocket 2.1 22:52:28 10° NNW 22:58:12 88° WSW 23:00:31 38° SSE
ISS -1.7 23:00:48 18° E 23:00:48 18° E 23:01:52 10° ENE
Cosmos 1340 Rocket 2.7 22:58:42 58° SE 22:59:14 67° E 23:03:12 10° NNE
Gbstr 26 Del rocket 2.9 22:59:00 35° SW 23:00:47 75° SSE 23:05:50 10° ENE
Cosmos 375 4.4 23:05:37 49° SSW 23:06:41 80° SE 23:11:40 10° NE
Cosmos 2333 4.4 23:02:01 10° NNW 23:07:48 72° ENE 23:10:38 31° SE
BREEZE-M DEB (TANK) 3.3 23:12:24 40° ESE 23:12:24 40° ESE 23:16:17 10° ENE
SL-27 R/B 3.3 23:13:18 35° E 23:13:18 35° E 23:15:52 10° NE
NOSS 3-2 (A) 4.2 23:13:40 27° SE 23:14:37 28° ESE 23:19:43 10° NE
Meteor 2-11 Rocket 4.4 23:08:37 10° N 23:14:46 85° E 23:17:23 37° SSE
Cosmos 44 3.0 23:14:09 47° SSW 23:15:26 81° SE 23:19:55 10° NE
Cosmos 972 Rocket 4.1 23:11:15 10° NNW 23:16:32 82° WSW 23:18:41 40° S
Cosmos 1833 4.1 23:14:26 38° SSW 23:16:40 80° ESE 23:22:17 10° NNE
Cosmos 1782 4.0 23:17:39 10° N 23:21:16 33° ENE 23:22:20 28° ESE
ALOS 2 3.2 23:21:37 38° SW 23:22:32 43° W 23:26:44 10° NNW
ERS-2 1.9 23:19:08 10° NNE 23:22:44 78° ESE 23:22:56 74° SSE
CENTAUR R/B 3.2 23:22:31 29° SE 23:23:59 32° ESE 23:29:50 10° NE
Cosmos 2237 Rocket 4.2 23:19:43 10° N 23:24:15 24° NE 23:28:44 10° E
Cosmos 1605 Rocket 4.1 23:19:02 10° N 23:25:29 76° E 23:28:27 34° SSE
COSMOS 2428 3.2 23:25:26 10° NNW 23:31:04 56° ENE 23:34:37 22° SE
Cosmos 2297 Rocket 4.2 23:29:19 12° ESE 23:31:07 14° E 23:33:52 10° ENE
Cosmos 2058 3.9 23:29:58 31° WSW 23:31:13 39° WNW 23:35:11 10° N
H-2A R/B 4.4 23:27:21 10° N 23:31:18 41° WNW 23:32:48 29° WSW
Cosmos 2151 3.8 23:31:03 34° ESE 23:31:55 38° E 23:35:55 10° NNE
SL-16 R/B 3.6 23:28:54 10° NW 23:33:17 23° WSW 23:34:48 21° SW
Cosmos 2219 Rocket 2.2 23:28:17 10° NNW 23:34:00 80° ENE 23:36:41 33° SE
Cosmos 1953 Rocket 3.9 23:33:03 41° SW 23:34:18 56° WNW 23:38:40 10° N
USA 267 3.5 23:31:05 10° NE 23:37:35 70° NNW 23:44:04 10° WSW
ATLAS 5 CENTAUR R/B 4.2 23:36:48 10° WNW 23:39:34 18° NNW 23:42:36 10° NNE
SJ 16-02 3.1 23:36:43 10° NW 23:39:55 20° W 23:40:31 19° WSW
SL-4 R/B 2.3 23:40:05 17° W 23:42:38 54° NNW 23:46:19 10° ENE
Cosmos 2322 3.7 23:37:26 10° NNW 23:43:09 86° ENE 23:45:45 34° SSE
Cosmos 1898 Rocket 3.8 23:39:20 10° NNW 23:44:28 61° ENE 23:47:02 29° SE
Cosmos 1937 Rocket 4.2 23:44:31 10° NNW 23:49:38 50° ENE 23:52:46 22° SE
Cosmos 2221 2.9 23:47:09 10° NNW 23:51:23 50° W 23:52:14 43° SW
COSMOS 2455 4.1 23:46:05 10° NNW 23:51:45 40° NE 23:57:22 10° ESE
PSLV R/B 3.8 23:49:22 10° N 23:54:06 72° WNW 23:55:36 42° SW
